This is the latest recevied weather packets stored in our database for station/object KE0WPC. If no packets are shown the sender has not sent any weather packets the latest 10 day(s).
| Time | Temp. | Humidity | Pressure | Rain* | Wind** | Luminosity | Snow |
|---|---|---|---|---|---|---|---|
| 1777817066 | 13.33° C | 56% | 1012.9 hPa | - | - | - | - |
| 1777816762 | 13.33° C | 56% | 1012.5 hPa | - | - | - | - |
| 1777816460 | 12.78° C | 58% | 1012.5 hPa | - | - | - | - |
| 1777816157 | 12.78° C | 58% | 1012.5 hPa | - | - | - | - |
| 1777815849 | 12.78° C | 58% | 1012.5 hPa | - | - | - | - |
| 1777815546 | 12.22° C | 59% | 1012.5 hPa | - | - | - | - |
| 1777815244 | 12.22° C | 59% | 1012.5 hPa | - | - | - | - |
| 1777814939 | 12.22° C | 59% | 1012.2 hPa | - | - | - | - |
| 1777814636 | 11.67° C | 60% | 1012.2 hPa | - | - | - | - |
| 1777814333 | 11.67° C | 61% | 1012.5 hPa | - | - | - | - |
| 1777814029 | 11.67° C | 61% | 1012.5 hPa | - | - | - | - |
| 1777813727 | 11.11° C | 62% | 1012.5 hPa | - | - | - | - |
| 1777813424 | 10.56° C | 63% | 1012.2 hPa | - | - | - | - |
| 1777813121 | 10° C | 63% | 1012.2 hPa | - | - | - | - |
| 1777812819 | 9.44° C | 63% | 1012.2 hPa | - | - | - | - |
| 1777812516 | 9.44° C | 63% | 1011.9 hPa | - | - | - | - |
| 1777812214 | 8.89° C | 64% | 1012.2 hPa | - | - | - | - |
| 1777811911 | 8.89° C | 63% | 1011.9 hPa | - | - | - | - |
| 1777811610 | 8.89° C | 63% | 1011.9 hPa | - | - | - | - |
| 1777811305 | 8.33° C | 62% | 1011.9 hPa | - | - | - | - |
| 1777811003 | 8.89° C | 62% | 1011.9 hPa | - | - | - | - |
| 1777810700 | 8.89° C | 62% | 1011.9 hPa | - | - | - | - |
| 1777810396 | 8.89° C | 61% | 1011.9 hPa | - | - | - | - |
| 1777810092 | 8.89° C | 61% | 1011.5 hPa | - | - | - | - |
| 1777809790 | 8.89° C | 61% | 1011.5 hPa | - | - | - | - |
* Rain since midnight (hover to see other rain measurements)
** Current wind speed in m/s (hover to see current wind gust speed)